Temperature
22 22 22 22 21 21 21 22 22 22 22 23 24 23 22 22 21 20 20 20 19 19 19 19 19 19 19 19 19 18 18 18 18 17 17 17 16 16 16 16 16 15 15 15
22 22 21 21 21 21 21 21 22 22 22 24 23 22 22 22 21 20 20 20 19 19 19 19 19 19 19 19 19 19 18 18 18 18 17 17 17 16 16 16 16 15 15 15
22 22 21 21 22 22 22 22 22 22 23 24 23 22 22 21 21 20 20 20 20 19 19 19 19 19 19 19 19 19 18 18 18 18 17 17 17 16 16 16 16 16 15 15
22 21 20 23 23 22 22 22 23 23 23 23 22 21 20 20 20 20 20 19 20 20 20 19 19 19 19 19 19 18 18 18 18 18 17 17 17 16 16 16 16 16 15 15
22 21 21 22 22 22 22 22 23 23 23 22 21 21 21 20 19 19 19 19 20 20 20 19 19 19 19 18 18 18 18 18 18 18 17 17 17 16 16 16 16 15 15 15
21 21 21 22 23 21 22 22 23 23 23 22 22 23 23 20 19 19 19 20 20 20 19 19 19 19 19 18 18 18 18 18 18 18 17 17 17 16 16 16 16 15 15 15
21 21 22 22 21 21 21 22 22 22 22 22 22 23 21 20 19 19 20 20 20 20 19 19 19 19 18 18 18 18 18 18 18 18 17 17 17 16 16 16 16 15 15 15
21 21 21 21 21 22 22 22 21 21 21 21 21 20 19 19 19 19 19 19 19 19 19 19 19 19 18 18 18 18 18 18 17 17 17 17 16 16 16 16 15 15 15 15
22 22 21 20 21 20 20 21 21 21 20 20 20 19 19 19 19 19 19 19 19 19 19 19 19 18 18 18 18 18 18 17 17 17 17 16 16 16 16 15 15 15 15 15
21 21 20 19 19 19 19 19 19 19 19 19 19 19 18 18 18 18 19 19 18 18 18 18 18 18 18 18 18 17 17 17 17 17 16 16 16 16 15 15 15 15 15 14
21 21 19 19 19 19 19 19 19 19 18 18 18 18 18 18 18 18 18 18 18 18 18 18 18 18 17 17 17 17 17 17 16 16 16 16 16 16 15 15 15 15 15 14
21 21 21 20 19 18 18 18 18 18 18 18 18 18 18 18 18 18 18 18 18 18 17 17 17 17 17 17 16 16 16 16 16 16 16 16 15 15 15 15 15 14 14 14
19 19 19 18 18 18 18 18 18 18 18 18 18 18 18 18 17 17 17 17 17 17 17 17 16 16 16 16 16 16 15 15 15 15 15 15 15 15 15 14 14 14 14 14
17 17 17 17 17 17 17 17 17 17 17 17 17 17 17 17 17 17 17 17 17 16 16 16 16 16 16 15 15 15 15 15 15 15 15 14 14 14 14 14 14 13 13 13
16 17 17 17 17 17 17 17 17 17 17 17 17 17 17 17 17 16 16 16 16 16 16 16 15 15 15 15 15 14 14 14 14 14 14 14 14 13 13 13 13 13 13 13
16 16 16 16 16 16 16 16 16 16 16 16 16 16 16 16 16 16 16 16 15 15 15 15 15 14 14 14 14 14 14 14 14 13 13 13 13 13 12 12 12 12 12 12
15 15 15 15 16 16 16 16 16 15 16 16 16 16 15 15 15 15 15 15 14 14 14 14 14 14 14 13 13 13 13 13 13 12 12 12 12 12 12 11 11 11 11 11
15 16 16 16 15 15 15 15 15 15 15 15 15 15 15 15 14 14 14 14 14 13 13 13 13 13 13 13 12 12 12 12 12 12 11 11 11 11 11 11 10 10 10 10
14 15 15 15 15 15 15 15 14 14 14 15 14 14 14 14 14 13 13 13 13 13 12 12 12 12 12 12 12 12 11 11 11 11 11 11 10 10 10 10 10 9 9 9
14 14 14 14 14 14 14 14 14 14 14 14 14 13 13 13 13 12 12 12 12 12 11 11 11 11 11 11 11 11 10 10 10 10 10 9 9 9 9 9 9 9 9 8
13 14 14 14 13 14 13 13 13 13 13 13 13 13 12 12 12 11 11 11 11 11 10 10 10 10 10 10 10 10 10 10 9 9 9 9 8 8 8 8 8 8 8 8
13 13 13 13 13 13 13 13 13 13 12 12 12 12 11 11 11 10 10 10 10 10 10 9 9 9 9 9 9 9 9 9 8 8 8 8 8 7 7 7 7 7 7 7
12 12 12 12 12 12 12 12 12 12 12 12 11 11 11 10 10 10 9 9 9 9 9 9 9 9 9 8 8 8 8 8 8 7 7 7 7 7 6 6 6 6 6 6
11 11 11 11 11 11 11 11 11 11 11 11 10 10 10 9 9 9 9 8 8 8 8 8 8 8 8 7 7 7 7 7 7 6 6 6 6 6 6 5 5 5 5 5
10 10 10 10 10 10 10 10 10 9 9 9 9 9 9 9 8 8 8 7 7 7 7 7 7 7 6 6 6 6 6 6 6 5 5 5 5 5 5 4 4 4 4 4
9 9 9 9 9 9 9 9 9 8 8 8 8 8 8 7 7 7 7 6 6 6 6 6 6 6 5 5 5 5 5 5 5 4 4 4 4 4 4 4 4 3 3 3
8 8 8 8 8 8 8 8 8 7 7 7 7 7 7 6 6 6 6 5 5 5 5 5 5 5 5 4 4 4 4 4 4 4 3 3 3 3 3 3 3 3 3 3
Wind_Speed
4 2 4 6 8 10 11 9 7 6 7 8 6 5 4 3 4 5 7 9 11 11 12 13 13 13 13 12 12 12 12 11 11 10 9 8 8 8 7 6 6 5 5 4
6 5 6 7 8 10 10 10 10 10 10 7 5 3 3 4 5 6 7 9 10 11 12 13 14 14 13 12 12 12 12 12 10 10 9 9 9 8 7 7 6 6 5 5
5 4 5 7 9 10 9 9 10 10 8 4 3 3 3 4 5 5 6 7 9 10 11 12 13 13 13 13 12 13 12 11 11 10 10 10 9 9 8 8 7 6 6 5
5 5 6 1 1 6 9 10 11 10 8 6 4 2 2 3 4 5 5 6 7 8 9 10 11 12 12 12 12 12 12 12 11 11 11 10 9 9 9 8 8 7 6 6
5 6 5 4 4 5 6 7 7 9 7 5 4 3 2 2 3 4 4 5 6 6 7 8 10 11 11 12 12 12 12 12 12 12 11 11 10 10 9 8 8 7 7 7
6 6 5 3 2 2 4 5 2 5 5 4 6 5 2 2 3 3 3 3 4 5 6 7 8 10 11 11 11 12 11 11 11 12 12 12 11 10 9 8 8 7 7 7
9 7 5 1 3 5 5 2 1 2 4 5 4 1 2 3 3 3 3 3 4 5 5 5 7 9 10 10 10 10 9 10 10 11 11 11 10 9 8 8 8 8 8 7
9 8 6 3 5 5 2 1 1 2 3 3 2 2 3 4 4 4 4 4 4 5 4 4 6 8 8 8 8 7 8 9 9 10 9 9 9 9 8 9 8 8 8 7
7 5 1 4 5 3 2 2 2 2 2 3 3 3 3 4 4 4 4 4 4 5 5 5 5 6 7 7 7 7 8 8 8 9 9 9 10 9 8 8 7 7 7 7
6 6 4 4 4 3 3 3 1 1 3 4 4 4 4 4 4 3 4 4 4 5 5 4 4 5 5 5 6 7 8 8 8 8 8 8 7 8 8 8 8 8 8 7
7 5 4 4 4 3 2 2 2 2 3 3 4 4 4 4 4 4 4 4 4 5 4 4 4 4 4 4 6 7 7 6 6 7 7 7 7 6 8 8 7 8 7 7
7 6 5 4 4 4 4 4 3 3 3 3 4 4 5 4 4 4 4 4 5 5 5 4 4 4 3 4 5 6 6 6 5 5 5 5 5 5 3 4 3 5 5 6
4 3 3 3 4 4 4 4 4 4 4 4 4 4 5 5 4 4 4 4 5 5 5 4 4 4 3 3 4 5 5 5 4 4 5 5 5 5 4 4 5 6 7 7
4 4 4 4 4 4 4 5 5 5 5 4 4 4 5 5 5 5 4 4 5 5 5 4 4 3 2 2 3 3 3 3 3 3 4 4 4 4 4 4 4 4 6 9
6 5 5 4 4 4 5 5 6 5 5 5 4 4 4 5 5 4 4 5 5 6 5 4 4 3 3 2 3 3 3 2 2 2 2 3 3 3 3 4 4 4 3 4
6 5 6 6 5 5 5 6 6 5 4 4 4 4 5 5 5 5 5 5 5 6 5 5 4 3 3 3 3 2 2 3 2 2 2 2 2 2 2 3 3 3 3 3
8 8 7 7 7 6 6 5 5 5 5 5 4 5 6 6 7 6 6 5 6 6 5 5 4 3 3 3 3 2 2 2 2 1 1 1 1 2 2 2 3 3 3 2
9 9 9 9 8 7 6 5 5 5 4 4 5 6 6 6 6 6 6 6 7 7 6 5 4 4 3 3 2 2 2 1 1 1 0 1 1 2 2 3 3 4 4 3
7 7 7 6 7 6 6 5 5 5 5 5 6 6 6 5 6 6 6 6 6 5 5 5 4 4 4 4 3 2 1 1 1 0 0 0 1 2 2 3 4 4 4 4
6 6 6 6 6 6 6 6 6 6 5 6 7 7 7 6 6 6 6 5 4 3 3 3 3 4 4 4 3 1 1 1 0 0 1 1 2 2 3 3 4 4 5 5
6 6 6 7 6 6 6 7 7 7 7 7 7 8 7 7 6 6 5 5 4 4 4 3 3 3 3 3 2 2 1 1 1 1 1 2 2 3 3 4 4 5 5 6
5 6 6 6 7 7 6 6 7 8 8 7 7 8 8 7 6 5 5 3 3 3 3 3 3 4 4 3 2 2 2 1 1 2 2 2 3 3 4 4 5 5 6 6
5 6 6 6 7 7 7 7 8 8 8 8 7 7 7 5 4 4 3 3 3 3 2 3 4 4 4 2 2 2 2 2 2 2 3 3 3 4 4 5 5 6 6 6
5 5 6 7 7 8 8 7 7 7 7 7 6 6 6 5 4 3 3 3 3 3 2 3 4 3 3 2 2 2 2 2 2 3 3 3 4 4 5 5 6 6 7 8
5 6 6 7 7 6 7 7 8 7 7 6 6 5 4 3 3 3 3 3 3 2 2 2 2 2 2 2 2 2 2 2 3 3 4 4 4 5 5 6 6 7 7 8
5 5 4 5 5 5 6 6 6 5 5 5 5 4 4 4 4 3 3 3 3 2 1 1 1 1 2 2 2 2 2 3 3 3 4 4 5 5 5 6 8 7 7 7
5 5 5 5 5 5 6 6 6 5 5 5 5 4 4 3 3 3 3 2 1 1 1 1 1 2 2 2 2 2 3 3 3 4 4 4 5 5 6 7 7 7 7 7
Wind_Direction
243 233 214 224 218 214 226 239 251 261 271 280 286 274 253 215 198 193 191 191 191 193 193 190 190 191 190 189 186 184 185 189 192 189 185 183 176 178 178 178 183 180 175 172
227 221 226 238 232 224 228 238 249 262 270 277 283 265 228 209 200 200 195 194 195 196 194 194 193 192 191 190 187 186 189 192 190 187 181 181 180 179 178 179 182 179 182 179
229 203 234 246 228 219 222 226 234 247 257 266 258 238 227 215 207 205 197 195 197 198 197 197 196 194 192 192 188 189 192 192 188 187 184 185 182 179 180 182 181 183 188 187
234 221 242 255 179 219 231 242 243 252 261 257 253 249 243 229 214 207 199 195 197 198 196 195 193 191 190 187 188 191 193 193 191 190 187 183 181 183 188 188 184 189 193 193
230 238 251 243 218 209 226 248 243 243 248 239 218 199 204 199 209 212 204 196 193 193 189 187 186 184 183 186 189 192 194 195 192 191 188 184 186 189 190 189 190 194 197 198
223 235 241 222 144 183 228 239 228 221 217 205 196 203 174 157 179 184 169 174 176 174 176 179 181 179 182 188 191 197 197 197 193 191 190 191 193 193 189 189 193 194 197 205
227 235 242 228 145 171 214 227 135 202 192 185 197 138 97 126 138 135 131 142 155 156 161 171 174 174 183 190 196 198 194 194 191 191 193 193 192 190 188 189 191 197 200 207
219 228 229 154 166 201 241 322 227 188 178 172 155 101 110 124 128 125 123 132 149 151 149 154 165 174 184 194 196 189 183 186 188 189 189 187 186 188 191 191 193 199 205 209
222 232 237 172 203 237 268 238 217 187 175 166 150 135 132 132 129 124 126 134 146 150 145 146 161 176 184 187 184 180 178 182 185 185 186 186 186 186 189 193 201 206 208 214
222 229 222 214 226 230 230 224 195 173 168 162 147 135 131 125 119 120 126 132 139 142 143 145 155 168 178 173 175 178 180 183 185 185 185 186 189 192 194 197 204 211 214 218
224 220 203 206 204 198 173 162 156 142 142 153 141 127 125 124 120 118 117 120 134 145 145 142 145 153 165 169 175 180 181 180 183 186 187 190 192 201 208 208 210 211 216 218
220 207 209 199 184 180 169 157 155 143 126 126 136 129 119 113 113 117 120 123 126 127 130 132 132 135 143 165 181 183 181 180 181 182 185 190 194 198 204 230 210 218 234 237
231 207 193 170 155 159 159 146 138 139 138 130 125 122 118 112 108 109 113 117 117 117 119 119 116 113 123 151 175 184 184 180 179 183 185 190 197 204 210 209 211 223 226 231
188 162 166 168 157 153 146 139 132 128 127 125 122 118 115 110 106 103 100 100 106 110 110 110 106 97 99 133 157 172 175 167 175 183 192 197 203 212 219 225 230 237 220 217
197 199 185 163 154 150 146 139 134 130 124 122 122 121 120 117 112 104 98 99 102 101 99 100 95 85 84 115 136 144 146 150 160 172 184 195 203 213 222 231 241 249 251 211
181 173 167 168 170 162 156 152 149 143 135 129 125 123 121 116 110 103 98 100 103 98 91 89 84 78 87 107 117 123 123 106 125 158 171 183 197 211 226 237 245 250 254 259
183 186 184 182 183 180 176 174 168 159 148 137 132 128 124 119 112 104 98 97 94 90 85 81 76 72 86 101 111 115 115 120 133 151 167 196 218 233 242 250 257 262 265 260
208 205 199 194 190 185 180 173 166 158 148 136 132 133 131 128 120 112 106 104 99 88 74 67 66 72 82 85 90 97 112 118 134 156 198 237 254 252 258 266 269 273 278 263
202 198 196 192 189 185 177 169 161 153 144 141 139 135 129 122 116 114 113 108 101 90 69 58 51 68 70 62 55 87 88 89 89 69 331 268 276 286 285 281 280 279 280 279
186 182 179 175 172 171 165 157 150 144 142 142 137 129 123 118 117 115 109 98 84 78 75 62 66 63 63 56 34 52 72 73 27 323 290 282 285 292 293 288 286 286 284 282
176 168 164 160 154 151 151 149 144 141 139 141 139 133 126 121 119 117 111 98 79 72 72 61 58 53 48 38 20 34 34 18 335 306 299 296 295 296 295 294 293 292 292 291
167 164 162 156 150 146 144 142 139 136 134 133 131 127 124 121 115 105 94 94 93 75 71 64 55 47 31 14 19 21 14 359 341 329 319 312 304 301 302 303 301 300 298 296
157 158 156 155 153 146 138 135 135 134 134 133 133 133 129 124 123 121 109 94 98 72 56 56 54 44 11 7 16 10 360 348 339 330 322 314 309 308 308 307 307 305 303 301
143 145 144 142 141 139 136 132 129 127 127 124 124 128 128 121 110 99 103 102 86 76 61 64 59 28 352 1 2 354 349 344 335 328 322 316 314 312 311 310 309 308 305 303
135 134 134 137 138 136 132 128 124 121 119 117 116 116 116 117 123 119 115 115 103 86 77 68 47 6 354 2 353 343 337 337 332 325 318 317 315 313 312 311 310 307 305 303
130 128 128 133 131 130 133 132 131 131 128 122 116 110 104 105 112 114 115 117 107 80 61 37 13 347 353 353 345 337 332 328 322 320 319 316 315 314 312 312 311 309 307 307
124 124 124 123 122 128 132 134 135 134 132 129 122 112 107 107 110 112 113 112 105 83 49 16 355 350 349 344 336 331 328 325 323 322 322 322 320 317 316 314 313 312 311 310
Height
1516 1517 1519 1520 1522 1523 1524 1522 1523 1519 1518 1514 1513 1515 1517 1519 1521 1522 1525 1527 1530 1532 1535 1538 1542 1546 1549 1552 1556 1558 1561 1564 1567 1569 1571 1573 1574 1575 1577 1578 1579 1580 1580 1581
1517 1517 1518 1519 1518 1519 1521 1520 1519 1518 1516 1511 1513 1514 1515 1517 1519 1521 1522 1525 1527 1530 1533 1535 1539 1542 1546 1549 1552 1556 1558 1561 1564 1567 1568 1570 1572 1574 1575 1576 1577 1578 1579 1579
1516 1516 1518 1519 1513 1514 1515 1514 1515 1516 1512 1510 1512 1513 1515 1516 1517 1518 1520 1522 1524 1527 1530 1532 1536 1539 1542 1546 1549 1552 1555 1558 1561 1563 1565 1568 1570 1571 1573 1574 1576 1577 1577 1578
1514 1518 1526 1512 1506 1508 1510 1510 1509 1509 1508 1510 1511 1513 1514 1515 1516 1517 1518 1520 1522 1525 1527 1530 1533 1536 1540 1543 1546 1549 1552 1555 1557 1560 1562 1564 1567 1569 1571 1572 1574 1575 1576 1577
1514 1518 1515 1509 1507 1508 1510 1508 1506 1506 1507 1509 1511 1511 1512 1513 1514 1515 1516 1518 1520 1522 1524 1527 1530 1533 1536 1539 1542 1545 1548 1551 1553 1556 1559 1561 1563 1565 1568 1569 1571 1573 1574 1575
1513 1518 1519 1507 1504 1507 1509 1508 1503 1504 1505 1507 1509 1507 1509 1512 1512 1513 1515 1516 1518 1520 1522 1525 1528 1530 1533 1536 1539 1541 1544 1547 1550 1553 1555 1557 1560 1562 1564 1566 1568 1570 1571 1572
1511 1513 1506 1502 1505 1508 1513 1507 1503 1503 1505 1506 1507 1507 1510 1510 1511 1512 1514 1515 1517 1519 1521 1523 1525 1528 1530 1533 1535 1538 1541 1544 1546 1549 1551 1554 1556 1559 1561 1563 1565 1566 1567 1569
1507 1511 1509 1502 1504 1504 1502 1502 1503 1504 1505 1506 1507 1509 1509 1510 1511 1512 1513 1515 1516 1517 1519 1521 1523 1526 1528 1530 1533 1536 1538 1540 1543 1545 1548 1550 1552 1555 1557 1559 1561 1562 1564 1565
1497 1500 1499 1500 1501 1502 1502 1502 1503 1504 1505 1506 1507 1508 1509 1510 1511 1512 1513 1514 1515 1517 1518 1520 1522 1524 1526 1528 1530 1533 1535 1537 1539 1542 1544 1546 1549 1551 1553 1555 1556 1558 1559 1560
1496 1496 1498 1500 1500 1501 1501 1502 1502 1504 1505 1505 1506 1507 1508 1509 1510 1511 1512 1513 1514 1516 1517 1519 1521 1522 1524 1526 1528 1530 1532 1534 1536 1538 1541 1543 1545 1547 1549 1550 1552 1553 1555 1556
1493 1495 1497 1498 1499 1500 1500 1501 1502 1503 1504 1505 1505 1507 1507 1508 1509 1510 1511 1512 1513 1515 1516 1518 1519 1521 1522 1524 1526 1528 1530 1532 1533 1535 1537 1539 1541 1543 1545 1546 1548 1549 1550 1551
1489 1491 1493 1496 1497 1499 1499 1500 1501 1502 1503 1504 1505 1506 1507 1508 1509 1510 1511 1512 1513 1514 1515 1517 1518 1519 1521 1523 1524 1526 1528 1529 1530 1532 1533 1535 1537 1539 1540 1542 1543 1544 1545 1546
1489 1490 1492 1494 1496 1497 1499 1500 1501 1502 1503 1504 1505 1506 1507 1508 1509 1509 1510 1511 1512 1513 1515 1516 1517 1518 1520 1521 1523 1524 1525 1527 1528 1529 1530 1532 1533 1534 1536 1537 1538 1539 1539 1540
1488 1489 1491 1493 1495 1496 1498 1499 1500 1502 1503 1504 1505 1505 1506 1507 1508 1509 1510 1511 1512 1513 1514 1515 1516 1517 1518 1519 1521 1522 1523 1524 1525 1526 1527 1528 1530 1531 1532 1533 1533 1533 1534 1534
1486 1488 1490 1491 1493 1495 1497 1498 1499 1501 1502 1503 1504 1505 1506 1506 1507 1508 1509 1510 1511 1512 1513 1514 1515 1516 1517 1518 1519 1520 1521 1522 1523 1523 1524 1525 1526 1527 1528 1528 1529 1529 1529 1529
1484 1486 1488 1490 1492 1493 1495 1496 1498 1499 1500 1502 1503 1503 1504 1505 1506 1507 1508 1509 1510 1511 1512 1513 1514 1515 1515 1516 1517 1518 1519 1520 1520 1521 1522 1522 1523 1523 1524 1524 1525 1524 1524 1524
1481 1483 1485 1487 1490 1492 1493 1495 1496 1497 1499 1500 1501 1502 1503 1504 1505 1506 1507 1508 1510 1510 1511 1512 1513 1513 1514 1515 1516 1516 1517 1517 1518 1519 1519 1520 1520 1520 1520 1521 1521 1521 1520 1520
1478 1480 1482 1484 1487 1489 1491 1493 1494 1496 1497 1498 1499 1501 1502 1503 1504 1505 1506 1507 1509 1510 1511 1511 1512 1512 1513 1513 1514 1515 1515 1515 1516 1516 1517 1517 1517 1517 1517 1517 1517 1517 1516 1515
1475 1477 1479 1481 1484 1486 1488 1490 1492 1494 1495 1496 1498 1499 1501 1502 1503 1504 1505 1507 1508 1509 1510 1510 1511 1511 1512 1512 1512 1513 1513 1513 1514 1514 1514 1514 1514 1514 1514 1513 1513 1512 1512 1511
1472 1474 1477 1479 1481 1483 1485 1487 1490 1491 1493 1495 1496 1498 1499 1501 1502 1503 1504 1506 1507 1507 1508 1509 1510 1510 1511 1511 1511 1511 1511 1511 1511 1511 1511 1511 1511 1511 1510 1510 1509 1508 1507 1506
1470 1472 1474 1476 1479 1481 1483 1485 1487 1489 1491 1493 1495 1496 1498 1500 1501 1502 1503 1505 1506 1507 1507 1508 1508 1509 1509 1509 1509 1509 1509 1509 1509 1509 1508 1508 1508 1507 1507 1506 1505 1504 1503 1501
1468 1470 1472 1474 1477 1479 1481 1483 1486 1488 1490 1492 1494 1495 1497 1499 1500 1502 1503 1504 1505 1505 1506 1507 1507 1507 1507 1507 1507 1507 1507 1506 1506 1506 1505 1505 1504 1503 1503 1502 1501 1499 1498 1496
1466 1468 1471 1473 1475 1477 1480 1482 1484 1486 1488 1490 1492 1494 1496 1497 1499 1500 1501 1503 1504 1504 1505 1505 1505 1505 1505 1505 1505 1505 1504 1504 1503 1503 1502 1502 1501 1500 1499 1497 1496 1495 1493 1491
1465 1467 1469 1472 1474 1476 1478 1480 1482 1485 1487 1489 1491 1493 1495 1496 1498 1499 1500 1501 1502 1502 1502 1503 1503 1503 1503 1503 1502 1502 1502 1501 1500 1500 1499 1498 1497 1496 1494 1493 1491 1490 1488 1486
1464 1466 1468 1470 1472 1475 1477 1479 1481 1484 1486 1488 1490 1492 1494 1495 1496 1497 1498 1499 1500 1500 1500 1501 1501 1500 1500 1500 1500 1499 1499 1498 1497 1496 1495 1494 1493 1491 1490 1488 1487 1485 1483 1481
1463 1465 1467 1470 1472 1474 1476 1478 1480 1483 1485 1487 1489 1491 1492 1493 1495 1496 1496 1497 1498 1498 1498 1498 1498 1498 1498 1497 1497 1496 1495 1495 1494 1493 1491 1490 1489 1487 1485 1484 1482 1480 1477 1475
1463 1465 1467 1469 1472 1474 1476 1478 1480 1482 1484 1485 1487 1489 1491 1492 1493 1494 1495 1495 1496 1496 1496 1496 1496 1496 1495 1494 1494 1493 1492 1491 1490 1489 1488 1486 1485 1483 1481 1479 1477 1475 1472 1470